contact:dominique.lefevre@mio.osupytheas.fr, maurice.libes@osupytheas.fr, didier.mallarino@osupytheas.fr
Project:EMSO http://www.emso-fr.org/EMSO-France
Depth: 2436.0 m
Title:EMSO Ligure Ouest : Data MII capteur AQUADOPP
Date,Latitude,Longitude,X_East,Y_North,Z_Up,Amplitude_X,Amplitude_Y,Amplitude_Z,Batterie,SoundSpeed,Heading,Pitch,Roll,Pressure,TIS,Speed,Direction
, degrees North, degrees East, m.s-1, m.s-1,m.s-1, 1, 1, 1, Volt, m.s-1, degree, degree, degree, dbar, degree_C, m.s-1, degree
2023-08-20T00:04:03,42.805,6.029,-0.039,-0.003,-0.019,105.0,103.0,103.0,13.4,1505.2,329.8,-0.7,1.8,2471.527,13.29,0.039,265.6
2023-08-20T00:07:03,42.805,6.029,0.0,-0.018,-0.03,104.0,104.0,102.0,13.4,1505.2,348.6,-0.7,1.8,2471.516,13.29,0.018,180.0
2023-08-20T00:10:03,42.805,6.029,-0.014,0.0,0.01,104.0,102.0,102.0,13.4,1505.2,331.3,-0.8,1.8,2471.517,13.29,0.014,270.0
2023-08-20T00:13:03,42.805,6.029,-0.038,0.007,0.017,104.0,103.0,103.0,13.4,1505.2,337.1,-0.8,1.8,2471.512,13.29,0.038,280.4
2023-08-20T00:16:03,42.805,6.029,-0.017,-0.019,-0.001,104.0,104.0,102.0,13.4,1505.2,336.8,-0.8,1.9,2471.508,13.29,0.025,221.8
2023-08-20T00:19:03,42.805,6.029,-0.005,-0.011,0.016,104.0,104.0,103.0,13.3,1505.2,337.4,-0.8,1.8,2471.495,13.29,0.012,204.4
2023-08-20T00:22:03,42.805,6.029,0.007,-0.014,-0.013,105.0,103.0,103.0,13.4,1505.2,350.9,-0.7,1.8,2471.454,13.29,0.015,153.4
2023-08-20T00:25:03,42.805,6.029,-0.028,0.0,-0.023,104.0,104.0,102.0,13.4,1505.2,343.8,-0.8,1.8,2471.492,13.29,0.028,270.0
2023-08-20T00:28:03,42.805,6.029,-0.028,0.014,-0.029,104.0,103.0,102.0,13.3,1505.2,351.3,-0.8,1.8,2471.48,13.29,0.031,296.6
2023-08-20T00:31:03,42.805,6.029,-0.033,-0.028,-0.031,104.0,104.0,101.0,13.3,1505.2,335.2,-0.8,1.8,2471.467,13.29,0.043,229.7
2023-08-20T00:34:03,42.805,6.029,-0.023,-0.013,-0.022,104.0,103.0,102.0,13.4,1505.2,344.3,-0.8,1.8,2471.485,13.29,0.026,240.5
2023-08-20T00:37:03,42.805,6.029,-0.001,-0.03,-0.011,104.0,104.0,102.0,13.4,1505.2,322.2,-0.8,1.8,2471.488,13.29,0.03,181.9
2023-08-20T00:40:03,42.805,6.029,0.012,-0.009,-0.036,104.0,103.0,103.0,13.3,1505.2,323.4,-0.8,1.8,2471.464,13.29,0.015,126.9
2023-08-20T00:43:03,42.805,6.029,0.003,-0.02,-0.005,105.0,104.0,102.0,13.4,1505.2,331.9,-0.8,1.8,2471.484,13.29,0.02,171.5
2023-08-20T00:46:03,42.805,6.029,0.001,0.008,-0.012,104.0,103.0,102.0,13.4,1505.2,340.4,-0.7,1.8,2471.447,13.29,0.008,7.1
2023-08-20T00:49:03,42.805,6.029,0.004,-0.005,-0.001,104.0,103.0,102.0,13.4,1505.2,332.1,-0.8,1.8,2471.448,13.29,0.006,141.3
2023-08-20T00:52:03,42.805,6.029,-0.03,-0.002,-0.028,103.0,104.0,102.0,13.4,1505.2,325.3,-0.7,1.8,2471.47,13.29,0.03,266.2
2023-08-20T00:55:03,42.805,6.029,-0.02,-0.01,-0.044,104.0,105.0,101.0,13.4,1505.2,323.1,-0.8,1.8,2471.481,13.29,0.022,243.4
2023-08-20T00:58:03,42.805,6.029,-0.023,0.0,-0.018,104.0,104.0,102.0,13.4,1505.2,337.9,-0.8,1.8,2471.433,13.29,0.023,270.0
2023-08-20T01:04:03,42.805,6.029,-0.043,0.006,-0.034,107.0,104.0,103.0,13.3,1505.2,340.2,-0.8,1.8,2471.502,13.29,0.043,277.9
2023-08-20T01:07:03,42.805,6.029,-0.023,0.003,-0.012,103.0,104.0,102.0,13.3,1505.2,331.1,-0.8,1.8,2471.482,13.29,0.023,277.4
2023-08-20T01:10:03,42.805,6.029,-0.019,-0.011,-0.02,104.0,102.0,102.0,13.3,1505.2,349.5,-0.8,1.8,2471.467,13.29,0.021,239.9
2023-08-20T01:13:03,42.805,6.029,-0.019,0.005,-0.027,103.0,103.0,103.0,13.4,1505.2,341.2,-0.8,1.8,2471.441,13.29,0.019,284.7
2023-08-20T01:16:03,42.805,6.029,-0.014,0.003,-0.028,104.0,105.0,101.0,13.4,1505.2,322.7,-0.8,1.8,2471.498,13.29,0.014,282.1
2023-08-20T01:19:03,42.805,6.029,0.017,-0.018,-0.041,104.0,103.0,102.0,13.3,1505.2,326.8,-0.8,1.8,2471.464,13.29,0.024,136.6
2023-08-20T01:22:03,42.805,6.029,0.005,-0.007,0.0,104.0,102.0,103.0,13.4,1505.2,325.3,-0.8,1.8,2471.483,13.29,0.008,144.5
2023-08-20T01:25:03,42.805,6.029,-0.017,-0.003,-0.02,104.0,103.0,103.0,13.4,1505.2,330.1,-0.7,1.8,2471.467,13.29,0.017,260.0
2023-08-20T01:28:03,42.805,6.029,-0.011,-0.001,-0.02,105.0,103.0,101.0,13.3,1505.2,352.3,-0.8,1.8,2471.442,13.29,0.011,264.8
2023-08-20T01:31:03,42.805,6.029,-0.002,0.009,0.004,104.0,104.0,102.0,13.4,1505.2,320.7,-0.8,1.8,2471.438,13.29,0.009,347.5
2023-08-20T01:34:03,42.805,6.029,-0.011,-0.002,-0.033,104.0,104.0,102.0,13.3,1505.2,351.7,-0.8,1.9,2471.423,13.29,0.011,259.7
2023-08-20T01:37:03,42.805,6.029,-0.004,0.022,0.006,104.0,104.0,102.0,13.4,1505.2,349.3,-0.8,1.8,2471.438,13.29,0.022,349.7
2023-08-20T01:40:03,42.805,6.029,0.003,0.007,-0.024,104.0,102.0,102.0,13.4,1505.2,327.7,-0.7,1.8,2471.437,13.29,0.007,23.2
2023-08-20T01:43:03,42.805,6.029,0.001,-0.003,0.011,105.0,104.0,103.0,13.3,1505.2,345.9,-0.7,1.8,2471.428,13.29,0.003,161.6
2023-08-20T01:46:03,42.805,6.029,-0.015,0.007,-0.044,101.0,103.0,102.0,13.4,1505.2,342.6,-0.8,1.8,2471.431,13.29,0.016,295.0
2023-08-20T01:49:03,42.805,6.029,-0.008,0.024,-0.004,104.0,103.0,101.0,13.4,1505.2,351.5,-0.8,1.8,2471.381,13.29,0.025,341.6
2023-08-20T01:52:03,42.805,6.029,-0.035,-0.018,-0.065,102.0,104.0,101.0,13.4,1505.2,322.9,-0.8,1.8,2471.418,13.29,0.039,242.8
2023-08-20T01:55:03,42.805,6.029,-0.013,-0.022,-0.032,104.0,103.0,101.0,13.3,1505.2,336.1,-0.7,1.8,2471.452,13.29,0.025,210.6
2023-08-20T01:58:03,42.805,6.029,-0.01,-0.002,-0.053,103.0,103.0,102.0,13.4,1505.2,347.9,-0.7,1.8,2471.394,13.29,0.01,258.7
2023-08-20T02:04:03,42.805,6.029,0.011,0.001,-0.018,103.0,104.0,102.0,13.4,1505.2,344.9,-0.7,1.8,2471.437,13.29,0.011,84.8
2023-08-20T02:07:03,42.805,6.029,-0.039,0.009,-0.023,103.0,103.0,103.0,13.4,1505.2,345.4,-0.8,1.8,2471.423,13.29,0.04,283.0
2023-08-20T02:10:03,42.805,6.029,-0.032,0.006,-0.029,104.0,101.0,103.0,13.4,1505.2,327.8,-0.7,1.8,2471.415,13.29,0.032,280.6
2023-08-20T02:13:03,42.805,6.029,-0.004,0.013,-0.031,104.0,104.0,101.0,13.3,1505.2,326.5,-0.7,1.8,2471.427,13.29,0.013,342.9
2023-08-20T02:22:03,42.805,6.029,-0.013,0.007,-0.008,103.0,102.0,102.0,13.3,1505.2,323.6,-0.8,1.8,2471.464,13.29,0.014,298.3
2023-08-20T02:25:03,42.805,6.029,-0.016,0.004,-0.024,102.0,102.0,103.0,13.4,1505.2,340.7,-0.8,1.8,2471.452,13.29,0.016,284.0
2023-08-20T02:28:03,42.805,6.029,-0.023,0.005,-0.049,103.0,104.0,102.0,13.4,1505.2,327.0,-0.8,1.8,2471.432,13.29,0.023,282.3
2023-08-20T02:31:03,42.805,6.029,-0.01,-0.003,-0.011,103.0,104.0,102.0,13.4,1505.2,329.9,-0.8,1.8,2471.437,13.29,0.01,253.3
2023-08-20T02:34:03,42.805,6.029,-0.014,0.002,-0.005,104.0,103.0,102.0,13.4,1505.2,326.8,-0.8,1.8,2471.429,13.29,0.014,278.1
2023-08-20T02:37:03,42.805,6.029,-0.019,0.005,0.004,104.0,103.0,102.0,13.4,1505.2,327.9,-0.8,1.8,2471.397,13.29,0.019,284.7
2023-08-20T02:40:03,42.805,6.029,-0.029,0.005,-0.045,102.0,105.0,102.0,13.4,1505.2,334.3,-0.8,1.8,2471.426,13.29,0.029,279.8
2023-08-20T02:43:03,42.805,6.029,0.004,0.009,-0.039,103.0,103.0,102.0,13.4,1505.2,330.7,-0.8,1.8,2471.384,13.29,0.009,24.0
2023-08-20T02:46:03,42.805,6.029,-0.016,0.02,-0.027,105.0,103.0,101.0,13.3,1505.2,342.9,-0.8,1.8,2471.433,13.29,0.025,321.3
2023-08-20T02:49:03,42.805,6.029,0.002,0.001,-0.016,104.0,103.0,101.0,13.4,1505.2,331.5,-0.8,1.8,2471.375,13.29,0.002,63.4
2023-08-20T02:52:03,42.805,6.029,-0.007,0.002,-0.031,103.0,103.0,102.0,13.4,1505.2,330.5,-0.8,1.8,2471.396,13.29,0.007,285.9
2023-08-20T02:55:03,42.805,6.029,0.006,-0.006,-0.008,105.0,104.0,101.0,13.4,1505.2,348.9,-0.8,1.8,2471.415,13.29,0.008,135.0
2023-08-20T02:58:03,42.805,6.029,-0.008,0.001,-0.032,102.0,104.0,103.0,13.3,1505.2,325.1,-0.7,1.8,2471.402,13.29,0.008,277.1
2023-08-20T03:04:03,42.805,6.029,-0.012,0.006,-0.033,105.0,104.0,101.0,13.4,1505.2,331.3,-0.8,1.8,2471.453,13.29,0.013,296.6
2023-08-20T03:07:03,42.805,6.029,-0.01,0.005,-0.032,103.0,102.0,103.0,13.4,1505.2,343.4,-0.7,1.9,2471.439,13.29,0.011,296.6
2023-08-20T03:10:03,42.805,6.029,-0.012,0.005,-0.023,102.0,103.0,102.0,13.4,1505.2,331.8,-0.7,1.8,2471.457,13.29,0.013,292.6
2023-08-20T03:13:03,42.805,6.029,-0.016,-0.008,-0.011,102.0,104.0,102.0,13.4,1505.2,325.5,-0.7,1.8,2471.399,13.29,0.017,243.4
2023-08-20T03:16:03,42.805,6.029,-0.016,0.01,0.023,103.0,103.0,102.0,13.3,1505.2,334.9,-0.7,1.8,2471.401,13.29,0.018,302.0
2023-08-20T03:19:03,42.805,6.029,-0.022,0.007,-0.039,104.0,103.0,101.0,13.4,1505.2,332.6,-0.8,1.9,2471.42,13.29,0.023,287.6
2023-08-20T03:22:03,42.805,6.029,-0.011,-0.011,-0.047,103.0,103.0,102.0,13.4,1505.2,334.2,-0.8,1.8,2471.412,13.29,0.015,225.0
2023-08-20T03:25:03,42.805,6.029,-0.017,-0.008,-0.001,102.0,106.0,102.0,13.4,1505.2,344.5,-0.8,1.8,2471.431,13.29,0.018,244.8
2023-08-20T03:28:03,42.805,6.029,0.025,0.009,0.019,104.0,104.0,101.0,13.4,1505.2,340.9,-0.8,1.8,2471.397,13.29,0.026,70.2
2023-08-20T03:31:03,42.805,6.029,0.017,-0.009,-0.04,102.0,102.0,102.0,13.3,1505.2,324.0,-0.8,1.8,2471.37,13.3,0.019,117.9
2023-08-20T03:34:03,42.805,6.029,0.003,0.011,-0.017,104.0,105.0,102.0,13.4,1505.2,353.1,-0.8,1.8,2471.379,13.3,0.011,15.3
2023-08-20T03:37:03,42.805,6.029,-0.017,0.012,-0.031,104.0,106.0,102.0,13.4,1505.2,344.2,-0.8,1.8,2471.377,13.3,0.02,305.2
2023-08-20T03:40:03,42.805,6.029,-0.018,0.031,-0.044,103.0,106.0,102.0,13.4,1505.2,337.6,-0.8,1.8,2471.397,13.3,0.035,329.9
2023-08-20T03:43:03,42.805,6.029,0.012,0.014,-0.001,102.0,103.0,101.0,13.3,1505.2,350.5,-0.8,1.8,2471.386,13.3,0.018,40.6
2023-08-20T03:46:03,42.805,6.029,0.004,0.001,-0.02,105.0,104.0,101.0,13.4,1505.2,341.9,-0.8,1.8,2471.38,13.3,0.004,76.0
2023-08-20T03:49:03,42.805,6.029,0.004,-0.029,-0.044,105.0,104.0,102.0,13.4,1505.2,329.0,-0.7,1.8,2471.384,13.3,0.029,172.2
2023-08-20T03:52:03,42.805,6.029,0.004,-0.004,-0.007,106.0,103.0,101.0,13.4,1505.2,340.8,-0.8,1.8,2471.36,13.3,0.005,135.0
2023-08-20T03:55:03,42.805,6.029,-0.015,0.049,-0.006,104.0,103.0,101.0,13.3,1505.2,332.3,-0.8,1.8,2471.384,13.3,0.051,343.0
2023-08-20T03:58:03,42.805,6.029,-0.024,0.017,-0.007,102.0,104.0,102.0,13.4,1505.2,341.2,-0.8,1.8,2471.384,13.3,0.029,305.3
2023-08-20T04:04:03,42.805,6.029,-0.02,0.019,-0.006,103.0,104.0,101.0,13.4,1505.2,341.9,-0.7,1.8,2471.406,13.29,0.027,313.5
2023-08-20T04:07:03,42.805,6.029,-0.016,0.006,-0.028,103.0,103.0,103.0,13.3,1505.2,344.7,-0.7,1.8,2471.38,13.29,0.017,290.6
2023-08-20T04:10:03,42.805,6.029,-0.016,0.015,-0.023,102.0,105.0,101.0,13.4,1505.2,334.7,-0.8,1.8,2471.374,13.29,0.021,313.1
2023-08-20T04:13:03,42.805,6.029,-0.009,0.007,-0.024,104.0,103.0,104.0,13.4,1505.2,343.3,-0.8,1.8,2471.387,13.29,0.011,307.9
2023-08-20T04:16:03,42.805,6.029,0.001,0.001,-0.036,103.0,104.0,101.0,13.3,1505.2,332.5,-0.8,1.8,2471.384,13.29,0.001,45.0
2023-08-20T04:19:03,42.805,6.029,-0.011,0.015,-0.011,104.0,103.0,101.0,13.4,1505.2,322.7,-0.8,1.8,2471.396,13.29,0.018,323.7
2023-08-20T04:22:03,42.805,6.029,-0.012,0.002,0.007,104.0,102.0,101.0,13.4,1505.2,330.5,-0.7,1.8,2471.394,13.29,0.012,279.5
2023-08-20T04:25:03,42.805,6.029,-0.009,0.006,-0.017,104.0,103.0,101.0,13.4,1505.2,332.4,-0.8,1.9,2471.369,13.29,0.01,303.7
2023-08-20T04:28:03,42.805,6.029,0.003,0.036,-0.001,103.0,102.0,103.0,13.4,1505.2,331.1,-0.7,1.8,2471.379,13.29,0.036,4.8
2023-08-20T04:31:03,42.805,6.029,0.01,0.013,0.005,104.0,104.0,101.0,13.4,1505.2,322.7,-0.7,1.8,2471.371,13.29,0.016,37.6
2023-08-20T04:34:03,42.805,6.029,0.004,-0.016,0.008,104.0,102.0,101.0,13.4,1505.2,329.3,-0.8,1.8,2471.372,13.29,0.016,166.0
2023-08-20T04:37:03,42.805,6.029,-0.007,0.005,-0.018,103.0,103.0,101.0,13.3,1505.2,327.5,-0.8,1.8,2471.377,13.29,0.008,305.5
2023-08-20T04:40:03,42.805,6.029,-0.003,0.015,-0.033,103.0,103.0,101.0,13.3,1505.2,325.5,-0.8,1.9,2471.371,13.3,0.015,348.7
2023-08-20T04:43:03,42.805,6.029,0.004,0.0,-0.027,103.0,103.0,101.0,13.4,1505.2,324.9,-0.8,1.8,2471.352,13.3,0.004,90.0
2023-08-20T04:46:03,42.805,6.029,0.004,-0.007,-0.014,103.0,104.0,101.0,13.4,1505.2,320.7,-0.7,1.8,2471.397,13.3,0.008,150.3
2023-08-20T04:49:03,42.805,6.029,-0.006,0.006,0.004,104.0,104.0,102.0,13.3,1505.2,335.2,-0.7,1.8,2471.376,13.3,0.008,315.0
2023-08-20T04:52:03,42.805,6.029,0.012,-0.009,0.006,103.0,104.0,102.0,13.4,1505.2,349.1,-0.7,1.8,2471.403,13.3,0.015,126.9
2023-08-20T04:55:03,42.805,6.029,0.004,0.0,0.009,102.0,106.0,102.0,13.4,1505.2,337.8,-0.8,1.8,2471.367,13.3,0.004,90.0
2023-08-20T04:58:03,42.805,6.029,0.0,-0.007,-0.038,102.0,104.0,101.0,13.4,1505.2,327.1,-0.7,1.9,2471.426,13.3,0.007,180.0
2023-08-20T05:04:03,42.805,6.029,-0.005,0.02,-0.004,104.0,104.0,101.0,13.4,1505.2,349.3,-0.8,1.8,2471.388,13.29,0.02,346.0
2023-08-20T05:07:03,42.805,6.029,0.001,0.001,-0.017,103.0,103.0,102.0,13.3,1505.2,322.6,-0.8,1.8,2471.422,13.29,0.001,45.0
2023-08-20T05:10:03,42.805,6.029,-0.009,0.018,-0.018,102.0,103.0,102.0,13.4,1505.2,330.5,-0.8,1.8,2471.413,13.29,0.02,333.4
2023-08-20T05:13:03,42.805,6.029,0.012,0.011,-0.013,103.0,103.0,101.0,13.3,1505.2,340.3,-0.8,1.8,2471.432,13.3,0.016,47.5
2023-08-20T05:16:03,42.805,6.029,0.001,0.012,0.019,104.0,103.0,102.0,13.4,1505.2,326.6,-0.8,1.8,2471.385,13.3,0.012,4.8
2023-08-20T05:19:03,42.805,6.029,0.015,0.022,0.007,103.0,103.0,102.0,13.3,1505.2,327.1,-0.8,1.8,2471.379,13.3,0.026,34.3
2023-08-20T05:22:03,42.805,6.029,-0.006,0.026,-0.03,103.0,103.0,102.0,13.4,1505.2,334.2,-0.8,1.8,2471.379,13.3,0.026,347.0
2023-08-20T05:25:03,42.805,6.029,-0.002,-0.007,-0.041,103.0,104.0,100.0,13.3,1505.2,335.0,-0.8,1.8,2471.402,13.3,0.007,195.9
2023-08-20T05:28:03,42.805,6.029,0.005,0.031,-0.026,103.0,103.0,102.0,13.3,1505.2,342.7,-0.8,1.8,2471.416,13.3,0.031,9.2
2023-08-20T05:31:03,42.805,6.029,0.026,0.001,-0.033,104.0,103.0,101.0,13.4,1505.2,330.7,-0.7,1.8,2471.391,13.3,0.026,87.8
2023-08-20T05:34:03,42.805,6.029,-0.016,0.028,0.002,104.0,102.0,102.0,13.4,1505.2,324.2,-0.8,1.8,2471.405,13.3,0.032,330.3
2023-08-20T05:37:03,42.805,6.029,-0.005,0.018,-0.022,104.0,104.0,101.0,13.4,1505.2,340.5,-0.8,1.8,2471.387,13.3,0.018,344.5
2023-08-20T05:40:03,42.805,6.029,-0.004,0.025,0.003,104.0,101.0,101.0,13.3,1505.2,347.9,-0.7,1.8,2471.391,13.3,0.025,350.9
2023-08-20T05:43:03,42.805,6.029,0.033,-0.012,-0.015,104.0,102.0,102.0,13.3,1505.2,328.1,-0.8,1.8,2471.417,13.3,0.035,110.0
2023-08-20T05:46:03,42.805,6.029,0.012,-0.008,-0.018,103.0,104.0,101.0,13.3,1505.2,344.0,-0.7,1.8,2471.387,13.3,0.014,123.7
2023-08-20T05:49:03,42.805,6.029,0.001,0.025,-0.008,104.0,103.0,101.0,13.4,1505.2,329.7,-0.8,1.8,2471.369,13.29,0.025,2.3
2023-08-20T05:52:03,42.805,6.029,0.011,0.014,0.005,103.0,103.0,103.0,13.4,1505.2,346.5,-0.8,1.8,2471.396,13.29,0.017,38.2
2023-08-20T05:55:03,42.805,6.029,-0.011,0.016,-0.017,104.0,104.0,101.0,13.3,1505.2,320.4,-0.8,1.8,2471.414,13.29,0.019,325.5
2023-08-20T05:58:03,42.805,6.029,-0.005,0.01,-0.014,103.0,105.0,102.0,13.4,1505.2,319.8,-0.8,1.8,2471.394,13.29,0.011,333.4
2023-08-20T06:04:03,42.805,6.029,0.023,0.008,-0.017,103.0,103.0,102.0,13.3,1505.2,350.3,-0.8,1.8,2471.48,13.29,0.024,70.8
2023-08-20T06:07:03,42.805,6.029,0.016,0.004,-0.017,104.0,104.0,101.0,13.4,1505.2,345.1,-0.8,1.8,2471.452,13.29,0.016,76.0
2023-08-20T06:10:03,42.805,6.029,0.01,0.018,-0.001,102.0,103.0,102.0,13.4,1505.2,349.5,-0.8,1.8,2471.487,13.29,0.02,29.1
2023-08-20T06:13:03,42.805,6.029,0.001,0.013,-0.009,104.0,103.0,102.0,13.3,1505.2,335.1,-0.8,1.8,2471.467,13.29,0.013,4.4
2023-08-20T06:16:03,42.805,6.029,0.025,0.013,0.007,103.0,104.0,104.0,13.3,1505.2,323.6,-0.7,1.8,2471.422,13.29,0.028,62.5
2023-08-20T06:19:03,42.805,6.029,0.023,0.02,-0.001,104.0,103.0,101.0,13.4,1505.2,332.9,-0.8,1.9,2471.413,13.29,0.03,49.0
2023-08-20T06:22:03,42.805,6.029,0.036,0.01,0.039,103.0,102.0,101.0,13.3,1505.2,340.2,-0.8,1.8,2471.46,13.29,0.037,74.5
2023-08-20T06:25:03,42.805,6.029,-0.004,0.027,-0.012,104.0,103.0,101.0,13.4,1505.2,335.9,-0.7,1.8,2471.465,13.29,0.027,351.6
2023-08-20T06:28:03,42.805,6.029,0.013,-0.002,-0.044,103.0,104.0,102.0,13.4,1505.2,350.3,-0.8,1.8,2471.409,13.29,0.013,98.7
2023-08-20T06:31:03,42.805,6.029,0.024,0.014,-0.007,104.0,102.0,102.0,13.3,1505.2,335.8,-0.7,1.8,2471.466,13.29,0.027,59.7
2023-08-20T06:34:03,42.805,6.029,0.012,-0.005,-0.022,104.0,104.0,101.0,13.3,1505.2,322.7,-0.8,1.8,2471.426,13.29,0.013,112.6
2023-08-20T06:37:03,42.805,6.029,0.007,0.019,-0.008,104.0,103.0,102.0,13.3,1505.2,328.3,-0.8,1.8,2471.428,13.29,0.02,20.2
2023-08-20T06:40:03,42.805,6.029,0.034,0.005,-0.009,103.0,103.0,102.0,13.4,1505.2,324.0,-0.7,1.9,2471.466,13.29,0.034,81.6
2023-08-20T06:43:03,42.805,6.029,0.017,-0.007,-0.023,103.0,102.0,101.0,13.4,1505.2,329.3,-0.7,1.8,2471.45,13.29,0.018,112.4
2023-08-20T06:46:03,42.805,6.029,0.015,-0.004,0.02,104.0,103.0,101.0,13.3,1505.2,331.9,-0.8,1.8,2471.412,13.29,0.015,104.9
2023-08-20T06:49:03,42.805,6.029,-0.002,0.016,-0.021,103.0,103.0,101.0,13.3,1505.2,330.6,-0.8,1.8,2471.476,13.29,0.016,352.9
2023-08-20T06:52:03,42.805,6.029,0.023,0.026,0.008,104.0,104.0,102.0,13.4,1505.2,322.3,-0.8,1.8,2471.455,13.29,0.034,41.5
2023-08-20T06:55:03,42.805,6.029,0.021,0.025,0.004,103.0,103.0,101.0,13.3,1505.2,326.3,-0.8,1.8,2471.423,13.29,0.032,40.0
2023-08-20T06:58:03,42.805,6.029,0.0,0.034,-0.012,103.0,103.0,102.0,13.4,1505.2,330.9,-0.8,1.8,2471.453,13.29,0.034,0.0
2023-08-20T07:04:03,42.805,6.029,0.014,0.027,0.004,103.0,103.0,102.0,13.4,1505.2,322.3,-0.7,1.8,2471.477,13.29,0.03,27.4
2023-08-20T07:07:03,42.805,6.029,0.019,0.004,0.007,103.0,103.0,103.0,13.4,1505.2,327.1,-0.8,1.8,2471.551,13.29,0.019,78.1
2023-08-20T07:10:03,42.805,6.029,0.006,0.018,-0.031,103.0,104.0,101.0,13.4,1505.2,322.4,-0.8,1.8,2471.485,13.29,0.018,18.4
2023-08-20T07:13:03,42.805,6.029,0.008,0.008,0.013,104.0,104.0,101.0,13.4,1505.2,346.5,-0.7,1.8,2471.444,13.29,0.011,45.0
2023-08-20T07:16:03,42.805,6.029,0.016,0.017,-0.007,104.0,103.0,101.0,13.3,1505.2,320.3,-0.8,1.8,2471.484,13.29,0.023,43.3
2023-08-20T07:19:03,42.805,6.029,0.009,0.008,-0.002,104.0,105.0,101.0,13.4,1505.2,345.0,-0.8,1.8,2471.494,13.29,0.012,48.4
2023-08-20T07:22:03,42.805,6.029,0.016,-0.016,-0.023,103.0,103.0,102.0,13.4,1505.2,350.1,-0.8,1.8,2471.484,13.29,0.022,135.0
2023-08-20T07:25:03,42.805,6.029,0.019,0.016,-0.003,103.0,103.0,101.0,13.3,1505.2,338.5,-0.8,1.8,2471.458,13.29,0.024,49.9
2023-08-20T07:28:03,42.805,6.029,0.003,-0.006,-0.026,103.0,103.0,101.0,13.3,1505.2,331.0,-0.8,1.8,2471.491,13.29,0.006,153.4
2023-08-20T07:31:03,42.805,6.029,0.013,0.001,0.016,103.0,103.0,102.0,13.4,1505.2,351.8,-0.7,1.8,2471.474,13.29,0.013,85.6
2023-08-20T07:34:03,42.805,6.029,0.004,0.016,-0.007,103.0,103.0,102.0,13.4,1505.2,326.3,-0.7,1.8,2471.48,13.29,0.016,14.0
2023-08-20T07:37:03,42.805,6.029,0.035,-0.007,-0.04,102.0,103.0,102.0,13.4,1505.2,341.5,-0.7,1.8,2471.461,13.29,0.035,101.3
2023-08-20T07:40:03,42.805,6.029,0.021,0.025,-0.003,102.0,103.0,101.0,13.4,1505.2,340.7,-0.8,1.8,2471.485,13.29,0.032,40.0
2023-08-20T07:43:03,42.805,6.029,0.016,-0.016,0.004,103.0,103.0,101.0,13.4,1505.2,349.1,-0.8,1.8,2471.456,13.29,0.022,135.0
2023-08-20T07:46:03,42.805,6.029,0.007,0.01,0.006,103.0,104.0,101.0,13.4,1505.2,328.0,-0.7,1.8,2471.501,13.29,0.012,35.0
2023-08-20T07:49:03,42.805,6.029,0.017,0.009,-0.022,103.0,103.0,101.0,13.4,1505.2,327.9,-0.8,1.8,2471.497,13.29,0.019,62.1
2023-08-20T07:52:03,42.805,6.029,0.017,-0.014,-0.025,104.0,103.0,101.0,13.4,1505.2,343.8,-0.8,1.8,2471.47,13.29,0.022,129.5
2023-08-20T07:55:03,42.805,6.029,0.02,-0.007,-0.026,103.0,103.0,102.0,13.4,1505.2,340.0,-0.8,1.8,2471.514,13.29,0.021,109.3
2023-08-20T07:58:03,42.805,6.029,0.018,0.005,-0.011,104.0,103.0,103.0,13.4,1505.2,350.1,-0.8,1.8,2471.488,13.29,0.018,74.5
2023-08-20T08:04:03,42.805,6.029,0.004,-0.004,-0.027,106.0,105.0,101.0,13.4,1505.2,345.3,-0.8,1.8,2471.565,13.29,0.005,135.0
2023-08-20T08:07:03,42.805,6.029,0.015,0.0,-0.055,103.0,104.0,102.0,13.4,1505.2,353.2,-0.8,1.8,2471.539,13.29,0.015,90.0
2023-08-20T08:10:03,42.805,6.029,0.032,0.016,0.016,104.0,103.0,101.0,13.4,1505.2,336.5,-0.8,1.8,2471.55,13.29,0.035,63.4
2023-08-20T08:13:03,42.805,6.029,0.02,0.001,-0.03,103.0,104.0,102.0,13.4,1505.2,331.7,-0.8,1.8,2471.528,13.29,0.02,87.1
2023-08-20T08:16:03,42.805,6.029,0.019,0.003,0.022,103.0,104.0,102.0,13.4,1505.2,322.5,-0.7,1.8,2471.537,13.29,0.019,81.0
2023-08-20T08:19:03,42.805,6.029,0.021,-0.003,-0.029,105.0,102.0,102.0,13.3,1505.2,340.0,-0.8,1.8,2471.506,13.29,0.021,98.1
2023-08-20T08:22:03,42.805,6.029,-0.005,0.016,-0.044,104.0,104.0,101.0,13.4,1505.2,334.2,-0.8,1.8,2471.515,13.29,0.016,342.6
2023-08-20T08:25:03,42.805,6.029,0.004,-0.006,-0.033,103.0,102.0,104.0,13.4,1505.2,350.3,-0.7,1.8,2471.529,13.29,0.007,146.3
2023-08-20T08:28:03,42.805,6.029,-0.003,0.016,-0.02,103.0,104.0,102.0,13.3,1505.2,328.5,-0.7,1.8,2471.53,13.29,0.016,349.4
2023-08-20T08:31:03,42.805,6.029,0.017,-0.004,0.006,105.0,103.0,101.0,13.4,1505.2,323.4,-0.8,1.8,2471.493,13.29,0.017,103.2
2023-08-20T08:34:03,42.805,6.029,0.011,0.016,-0.012,104.0,104.0,101.0,13.3,1505.2,324.5,-0.8,1.8,2471.469,13.29,0.019,34.5
2023-08-20T08:37:03,42.805,6.029,0.014,0.019,-0.011,104.0,103.0,101.0,13.4,1505.2,345.3,-0.8,1.8,2471.528,13.29,0.023,36.4
2023-08-20T08:40:03,42.805,6.029,0.028,0.018,0.007,105.0,104.0,101.0,13.4,1505.2,344.4,-0.7,1.8,2471.525,13.29,0.033,57.3
2023-08-20T08:43:03,42.805,6.029,0.016,-0.001,-0.012,103.0,104.0,102.0,13.4,1505.2,344.7,-0.8,1.8,2471.546,13.29,0.016,93.6
2023-08-20T08:46:03,42.805,6.029,0.016,-0.008,0.006,105.0,104.0,101.0,13.3,1505.2,352.4,-0.7,1.8,2471.503,13.29,0.017,116.6
2023-08-20T08:49:03,42.805,6.029,0.005,0.005,0.0,104.0,103.0,101.0,13.3,1505.2,324.0,-0.8,1.8,2471.542,13.29,0.007,45.0
2023-08-20T08:52:03,42.805,6.029,0.012,0.014,0.023,105.0,104.0,101.0,13.4,1505.2,326.8,-0.8,1.8,2471.537,13.29,0.018,40.6
2023-08-20T08:55:03,42.805,6.029,0.017,0.008,-0.014,104.0,103.0,102.0,13.4,1505.2,342.3,-0.8,1.9,2471.534,13.29,0.018,64.8
2023-08-20T08:58:03,42.805,6.029,0.023,-0.006,-0.02,104.0,103.0,102.0,13.3,1505.2,342.3,-0.8,1.8,2471.498,13.29,0.023,104.6
2023-08-20T09:04:03,42.805,6.029,-0.001,0.001,-0.052,103.0,103.0,103.0,13.4,1505.2,331.6,-0.8,1.8,2471.563,13.29,0.001,315.0
2023-08-20T09:07:03,42.805,6.029,0.011,0.006,-0.01,104.0,105.0,102.0,13.4,1505.2,327.7,-0.7,1.8,2471.556,13.29,0.012,61.4
2023-08-20T09:10:03,42.805,6.029,0.012,0.007,-0.02,104.0,103.0,103.0,13.3,1505.2,328.3,-0.8,1.8,2471.536,13.29,0.013,59.7
2023-08-20T09:13:03,42.805,6.029,0.005,0.0,-0.029,103.0,103.0,102.0,13.4,1505.2,338.9,-0.8,1.8,2471.544,13.29,0.005,90.0
2023-08-20T09:16:03,42.805,6.029,0.007,0.011,-0.021,104.0,105.0,102.0,13.3,1505.2,339.5,-0.8,1.8,2471.554,13.29,0.013,32.5
2023-08-20T09:19:03,42.805,6.029,0.006,-0.006,-0.014,105.0,104.0,101.0,13.3,1505.2,338.9,-0.8,1.8,2471.499,13.29,0.008,135.0
2023-08-20T09:22:03,42.805,6.029,0.01,-0.003,-0.001,104.0,103.0,102.0,13.4,1505.2,330.8,-0.8,1.8,2471.489,13.29,0.01,106.7
2023-08-20T09:25:03,42.805,6.029,0.021,-0.007,0.001,104.0,103.0,103.0,13.4,1505.2,340.0,-0.8,1.8,2471.515,13.29,0.022,108.4
2023-08-20T09:28:03,42.805,6.029,0.025,-0.005,-0.035,106.0,103.0,101.0,13.4,1505.2,329.4,-0.8,1.8,2471.49,13.29,0.025,101.3
2023-08-20T09:31:03,42.805,6.029,0.0,0.006,-0.02,104.0,104.0,102.0,13.4,1505.2,348.4,-0.8,1.8,2471.557,13.29,0.006,0.0
2023-08-20T09:34:03,42.805,6.029,0.003,0.008,-0.009,105.0,104.0,102.0,13.3,1505.2,339.3,-0.7,1.8,2471.506,13.29,0.008,20.6
2023-08-20T09:37:03,42.805,6.029,0.028,-0.007,-0.003,104.0,104.0,102.0,13.4,1505.2,337.8,-0.8,1.8,2471.51,13.29,0.028,104.0
2023-08-20T09:40:03,42.805,6.029,0.024,0.011,-0.021,104.0,104.0,102.0,13.3,1505.2,338.0,-0.8,1.8,2471.502,13.29,0.026,65.4
2023-08-20T09:43:03,42.805,6.029,0.02,-0.014,-0.041,104.0,104.0,102.0,13.4,1505.2,336.6,-0.8,1.8,2471.535,13.29,0.024,125.0
2023-08-20T09:46:03,42.805,6.029,0.025,-0.003,-0.02,104.0,106.0,102.0,13.3,1505.2,339.5,-0.7,1.8,2471.511,13.29,0.025,96.8
2023-08-20T09:49:03,42.805,6.029,0.024,0.004,-0.017,105.0,105.0,102.0,13.4,1505.2,336.6,-0.8,1.8,2471.508,13.29,0.024,80.5
2023-08-20T09:52:03,42.805,6.029,0.015,-0.024,-0.009,105.0,103.0,103.0,13.4,1505.2,350.1,-0.7,1.8,2471.484,13.29,0.028,148.0
2023-08-20T09:55:03,42.805,6.029,0.009,-0.007,-0.023,105.0,105.0,101.0,13.4,1505.2,344.2,-0.8,1.8,2471.464,13.29,0.011,127.9
2023-08-20T09:58:03,42.805,6.029,0.012,0.005,0.014,101.0,105.0,102.0,13.3,1505.2,334.4,-0.8,1.8,2471.472,13.29,0.013,67.4
2023-08-20T10:04:03,42.805,6.029,0.019,-0.012,-0.05,105.0,103.0,103.0,13.3,1505.2,324.5,-0.8,1.8,2471.537,13.28,0.022,122.3
2023-08-20T10:07:03,42.805,6.029,0.013,-0.027,-0.056,103.0,106.0,102.0,13.4,1505.2,351.3,-0.8,1.8,2471.566,13.29,0.029,154.3